[[{"header":{"parameterUnit":"m.s-1","parameterCategory":1,"la1":30.2991,"la2":30.254,"lo1":-89.0895,"lo2":-89.0444,"dy":0.0017,"dx":0.0017,"nx":28,"ny":28,"refTime":"2025-02-28T03:00:00:Z","depth":0,"parameterNumber":2,"parameterNumberName":"U-component_of_WINDS"},"data":[0,0,0,0,0,0,0,0,0,0,0,0,0,0,0,0,0,0,0,0,0,0,0,0,0,0,0,0,0,0,0,0,0,0,0,0,0,0,0,0,0,0,0,0,0,0,0,0,0,0,0,0,0,0,0,0,0,0,2.5928,2.5929,0,2.6016,2.6017,2.6018,2.6045,2.6044,2.6044,2.6043,2.613,2.6132,2.6135,0,0,0,0,0,0,0,0,0,0,0,0,0,2.5782,2.5785,2.5928,2.593,2.5931,2.6016,2.6017,2.6018,2.6045,2.6044,2.6044,2.6043,2.6129,2.6132,2.6135,0,0,0,0,0,0,0,0,0,0,0,0,0,2.5855,2.5785,2.5928,2.5954,2.5957,2.6016,2.6017,2.6019,2.6045,2.6044,2.6044,2.6043,2.6128,2.6132,2.6136,2.6174,0,0,2.6148,2.615,0,0,0,0,0,0,0,0,2.5851,2.586,2.5949,2.5953,2.5956,2.6019,2.5997,2.607,2.6045,2.6012,2.6043,2.6043,2.6093,2.61,2.6118,2.6178,2.6181,2.6149,2.6151,2.6153,2.6154,0,0,0,0,0,0,0,2.5846,2.5857,2.5963,2.5951,2.5955,2.5961,2.597,2.6011,2.6055,2.6014,2.6017,2.6027,2.6095,2.6114,2.612,2.6183,2.6148,2.6152,2.6155,2.6156,2.6279,2.628,0,0,0,0,0,0,2.5837,2.5852,2.596,2.5966,2.5901,2.5964,2.5975,2.5999,2.6054,2.6062,2.6027,2.6028,2.6107,2.6115,2.6123,2.6172,2.6153,2.6156,2.6159,2.6278,2.6279,2.628,0,0,0,0,0,0,2.5833,2.5846,2.5957,2.591,2.5924,2.5967,2.5995,2.6001,2.602,2.6064,2.6072,2.6039,2.6107,2.6117,2.6161,2.6175,2.6158,2.6162,2.6277,2.6279,2.628,2.6269,0,0,0,0,0,0,2.5829,2.5845,2.586,2.591,2.5927,2.5994,2.5995,2.6004,2.6028,2.6029,2.6077,2.6084,2.6107,2.6155,2.6165,2.6181,2.6165,2.6276,2.6278,2.6279,2.6268,2.627,2.6271,0,0,0,0,0,2.5824,2.5852,2.586,2.5873,2.5947,2.5995,2.6004,2.6031,2.6029,2.6044,2.6072,2.6083,2.6172,2.6159,2.6171,2.6188,2.6276,2.6278,2.6279,2.6268,2.627,2.6271,0,0,0,0,0,0,2.5801,2.5859,2.5869,2.5915,2.595,2.5999,2.6019,2.6032,2.6068,2.6067,2.6098,2.6109,2.6151,2.6174,2.6159,2.6228,2.6224,2.6229,2.6211,2.6214,2.6215,2.6208,2.6169,0,0,0,0,0,2.5802,2.5837,2.5885,2.5921,2.5938,2.5976,2.5998,2.6016,2.6053,2.6067,2.6099,2.6134,2.617,2.6193,2.6229,2.6272,2.6283,2.6289,2.6291,2.6292,2.6295,2.6321,2.6324,2.6287,2.6287,2.6287,0,0,2.5803,2.5839,2.5859,2.5917,2.5947,2.5982,2.5988,2.6024,2.6051,2.6073,2.6117,2.6141,2.6182,2.6226,2.6247,2.6247,2.6308,2.6294,2.6294,2.6297,2.6323,2.6326,2.633,2.6288,2.6288,2.6287,0,0,2.5823,2.5853,2.5887,2.5917,2.5962,2.5987,2.5995,2.6043,2.6061,2.6106,2.6123,2.6155,2.6216,2.6245,2.6268,2.6301,2.6312,2.6311,2.6318,2.6343,2.6346,2.6349,2.6361,2.6365,2.6315,2.6315,2.6315,0,2.5818,2.5872,2.5902,2.5939,2.5964,2.5988,2.6022,2.6049,2.6103,2.6119,2.6118,2.6197,2.6226,2.6278,2.6286,2.6304,2.6314,2.6306,2.6343,2.6346,2.6349,2.6362,2.6366,2.6314,2.6314,2.6314,2.6314,0,2.5865,2.5902,2.5924,2.5978,2.6005,2.604,2.6075,2.61,2.6116,2.6141,2.6187,2.6223,2.6267,2.6281,2.6296,2.6335,2.6333,2.6337,2.6334,2.6352,2.6364,2.6369,2.6314,2.6314,2.6314,2.6314,0,0,2.5872,2.5943,2.595,2.5975,2.6028,2.6057,2.6093,2.6138,2.6158,2.6195,2.6226,2.6279,2.6283,2.6309,2.6328,2.635,2.6374,2.6351,2.6353,2.6354,2.6421,2.6418,2.6422,2.6382,2.6383,2.6384,2.6417,0,2.5899,2.5966,2.5995,2.6048,2.6084,2.6107,2.6139,2.6174,2.6199,2.6232,2.6259,2.6296,2.6299,2.6315,2.6338,2.6367,2.6388,2.6365,2.6411,2.6413,2.64,2.6429,2.6425,2.6455,2.6422,2.6423,2.6424,0,2.5939,2.5978,2.6035,2.6085,2.6101,2.6129,2.6173,2.6205,2.6245,2.6262,2.6291,2.631,2.6349,2.6343,2.6397,2.6381,2.6402,2.6419,2.6421,2.6426,2.6419,2.6435,2.6465,2.6469,2.6431,2.6431,2.643,0,2.5939,2.6005,2.6049,2.607,2.6128,2.6148,2.6173,2.6213,2.6238,2.6276,2.6293,2.6334,2.6357,2.6389,2.6418,2.6411,2.6469,2.6466,2.6484,2.6483,2.6495,2.6493,2.6529,2.6508,2.6508,2.6508,2.6508,0,2.5966,2.6,2.605,2.6077,2.6116,2.6149,2.6187,2.6214,2.625,2.6282,2.6304,2.6333,2.637,2.6404,2.6426,2.6468,2.6478,2.6492,2.6498,2.649,2.6489,2.6504,2.6503,2.6509,2.6509,2.6508,2.6508,0,2.5972,2.6007,2.6056,2.6109,2.6123,2.6149,2.6194,2.622,2.6247,2.6287,2.6299,2.634,2.6381,2.6413,2.6467,2.6482,2.6526,2.6532,2.6513,2.6516,2.6532,2.653,2.6578,2.6587,2.656,2.656,2.656,0,2.5988,2.6015,2.6071,2.6095,2.612,2.6158,2.6185,2.6218,2.6245,2.6294,2.6315,2.6358,2.6395,2.646,2.6494,2.6535,2.6542,2.6556,2.6548,2.654,2.6543,2.6541,2.6544,2.6557,2.6557,2.6557,2.6557,0,2.6011,2.6027,2.6065,2.611,2.6142,2.6178,2.6215,2.6233,2.6273,2.6302,2.6345,2.6373,2.6429,2.6472,2.6517,2.6542,2.6556,2.656,2.6566,2.6559,2.6547,2.6554,2.6516,2.6558,2.6558,2.6558,2.6558,2.6558,2.6022,2.6048,2.6092,2.6134,2.6166,2.62,2.6229,2.6259,2.6297,2.6346,2.6363,2.6408,2.6448,2.6511,2.6537,2.6572,2.6572,2.6581,2.6584,2.6585,2.6585,2.6541,2.658,2.658,2.658,2.658,2.658,0,2.6047,2.6077,2.6116,2.6168,2.6201,2.6213,2.6255,2.6281,2.6321,2.6359,2.6395,2.6445,2.6487,2.6525,2.6569,2.659,2.6597,2.66,2.6599,2.6604,2.6582,2.6572,2.6593,2.6593,2.6593,2.6593,2.6593,2.6593,2.6064,2.6109,2.6131,2.6192,2.6221,2.6267,2.6289,2.6321,2.6352,2.6407,2.6443,2.6468,2.6506,2.6553,2.6592,2.6602,2.6617,2.6618,2.663,2.6608,2.6606,2.6604,2.6595,2.6621,2.6621,2.665,2.665,2.665]},{"header":{"parameterUnit":"m.s-1","parameterCategory":1,"la1":30.2991,"la2":30.254,"lo1":-89.0895,"lo2":-89.0444,"dy":0.0017,"dx":0.0017,"nx":28,"ny":28,"refTime":"2025-02-28T03:00:00:Z","depth":0,"parameterNumber":3,"parameterNumberName":"V-component_of_WINDS"},"data":[0,0,0,0,0,0,0,0,0,0,0,0,0,0,0,0,0,0,0,0,0,0,0,0,0,0,0,0,0,0,0,0,0,0,0,0,0,0,0,0,0,0,0,0,0,0,0,0,0,0,0,0,0,0,0,0,0,0,0.7595,0.7598,0,0.7886,0.789,0.7893,0.79,0.7897,0.7893,0.789,0.8196,0.8207,0.8218,0,0,0,0,0,0,0,0,0,0,0,0,0,0.7045,0.7055,0.7594,0.7598,0.7602,0.7886,0.789,0.7894,0.7901,0.7897,0.7892,0.7888,0.8192,0.8205,0.8219,0,0,0,0,0,0,0,0,0,0,0,0,0,0.7305,0.7058,0.7594,0.7639,0.7646,0.7885,0.789,0.7895,0.7902,0.7896,0.7891,0.7886,0.8187,0.8204,0.8221,0.8436,0,0,0.8274,0.8281,0,0,0,0,0,0,0,0,0.729,0.7325,0.7629,0.7637,0.7645,0.7851,0.7808,0.8077,0.7903,0.7805,0.789,0.7883,0.8086,0.8111,0.8178,0.8451,0.8464,0.8275,0.8286,0.8293,0.8298,0,0,0,0,0,0,0,0.7272,0.7313,0.771,0.7633,0.7643,0.7646,0.7677,0.7859,0.7973,0.7813,0.7814,0.7848,0.8089,0.8161,0.8185,0.8468,0.8275,0.829,0.8301,0.8308,0.8924,0.8929,0,0,0,0,0,0,0.7244,0.7297,0.7701,0.7719,0.745,0.766,0.7694,0.7791,0.7971,0.7993,0.7853,0.7848,0.8134,0.8165,0.8196,0.8455,0.8293,0.8309,0.8319,0.8918,0.8925,0.8931,0,0,0,0,0,0,0.7233,0.728,0.7689,0.7509,0.7561,0.7675,0.7783,0.7799,0.7871,0.8,0.8021,0.7906,0.8131,0.8172,0.8374,0.8466,0.8317,0.8333,0.8911,0.892,0.8928,0.8977,0,0,0,0,0,0,0.7217,0.7276,0.7359,0.751,0.757,0.7863,0.7789,0.7809,0.79,0.7896,0.8055,0.8077,0.813,0.8348,0.8391,0.8487,0.8346,0.8903,0.8915,0.8925,0.8968,0.8987,0.9003,0,0,0,0,0,0.7197,0.7365,0.7364,0.7412,0.7677,0.7868,0.7902,0.7959,0.7908,0.7992,0.8073,0.8072,0.8448,0.8369,0.8418,0.852,0.8897,0.8911,0.8924,0.896,0.8983,0.9002,0,0,0,0,0,0,0.7227,0.7386,0.7386,0.7608,0.7723,0.7869,0.7977,0.7982,0.8118,0.8109,0.8175,0.821,0.841,0.8486,0.8394,0.8733,0.8667,0.8691,0.8677,0.87,0.8717,0.8695,0.8361,0,0,0,0,0,0.7258,0.7398,0.7531,0.7713,0.7771,0.7863,0.7949,0.7981,0.8105,0.8156,0.8252,0.8374,0.8518,0.8614,0.8755,0.8978,0.901,0.9071,0.9088,0.9102,0.9122,0.924,0.9267,0.8976,0.8976,0.8975,0,0,0.7326,0.743,0.7516,0.7721,0.7815,0.7959,0.7905,0.8062,0.8168,0.818,0.8375,0.845,0.8589,0.8801,0.8899,0.887,0.9209,0.9119,0.9129,0.9142,0.9256,0.9284,0.9308,0.8985,0.8983,0.8982,0,0,0.7523,0.7617,0.7776,0.7869,0.8009,0.8069,0.8106,0.8249,0.8298,0.8494,0.8503,0.8631,0.8882,0.8978,0.9061,0.9284,0.9286,0.9328,0.942,0.9533,0.9556,0.9577,0.9653,0.968,0.9348,0.9348,0.9348,0,0.7591,0.7807,0.7859,0.8012,0.81,0.8112,0.8272,0.8361,0.8542,0.8602,0.8565,0.8873,0.8969,0.92,0.9253,0.9321,0.9364,0.9312,0.9548,0.957,0.959,0.9663,0.9692,0.9352,0.9351,0.9351,0.9351,0,0.7881,0.803,0.8142,0.8309,0.841,0.8567,0.8641,0.8737,0.8758,0.8821,0.9017,0.913,0.9291,0.9348,0.9374,0.9582,0.9558,0.9534,0.9469,0.962,0.969,0.9719,0.9357,0.9356,0.9355,0.9354,0,0,0.8111,0.8298,0.8338,0.8412,0.8563,0.868,0.8834,0.8988,0.9067,0.9189,0.9319,0.9526,0.9502,0.9595,0.963,0.9729,0.9893,0.9693,0.9697,0.9724,1.0124,1.014,1.0172,0.9894,0.99,0.9904,1.0111,0,0.8322,0.8595,0.8642,0.8882,0.9017,0.9025,0.916,0.9266,0.9327,0.9451,0.9518,0.9662,0.9622,0.9677,0.9776,0.9852,0.9974,0.9838,1.0015,1.002,0.9978,1.0209,1.0229,1.0419,1.0139,1.0144,1.0147,0,0.8607,0.8729,0.8981,0.9106,0.9165,0.9285,0.9425,0.9544,0.9663,0.97,0.9799,0.982,0.9979,0.9904,1.0122,1.0028,1.0103,1.015,1.0159,1.0178,1.0093,1.0232,1.0481,1.0509,1.0191,1.0188,1.0185,0,0.8744,0.8973,0.9151,0.9214,0.9367,0.9449,0.9517,0.9631,0.9718,0.9841,0.9897,1.0038,1.0115,1.0223,1.028,1.0222,1.0493,1.0425,1.0526,1.0525,1.0585,1.058,1.0847,1.0634,1.0633,1.0633,1.0632,0,0.8975,0.9128,0.9214,0.9324,0.9493,0.9544,0.9711,0.9777,0.9876,0.9998,1.0015,1.0129,1.0198,1.0321,1.0368,1.0538,1.0574,1.0607,1.0617,1.0605,1.06,1.0655,1.0643,1.0641,1.0639,1.0637,1.0636,0,0.9159,0.9223,0.9417,0.9542,0.9577,0.9696,0.9803,0.9909,0.9965,1.0119,1.0158,1.0248,1.0393,1.046,1.0642,1.0672,1.0865,1.0867,1.0824,1.0827,1.0924,1.0913,1.1236,1.1279,1.1038,1.104,1.1042,0,0.9302,0.9418,0.9553,0.9634,0.9702,0.9833,0.9919,0.9972,1.0061,1.0201,1.0289,1.0433,1.0552,1.0783,1.0865,1.1001,1.1006,1.1109,1.1027,1.1009,1.1004,1.0996,1.1006,1.1124,1.1127,1.1129,1.113,0,0.9547,0.9571,0.9694,0.9825,0.9926,1.0034,1.0139,1.0205,1.0274,1.0372,1.0518,1.0609,1.079,1.0932,1.1072,1.1142,1.1147,1.1154,1.1185,1.1174,1.1142,1.1157,1.0862,1.1148,1.1146,1.1145,1.1144,1.1143,0.9714,0.9815,0.9923,1.0058,1.014,1.0237,1.034,1.0406,1.0528,1.0677,1.07,1.0854,1.0964,1.1153,1.1226,1.1347,1.1323,1.1368,1.1379,1.1389,1.1392,1.1122,1.1373,1.1373,1.1372,1.1372,1.1372,0,0.9958,1.0026,1.0148,1.0291,1.0395,1.0386,1.05,1.0588,1.0723,1.0824,1.0937,1.1101,1.1237,1.1326,1.1463,1.1542,1.1547,1.1576,1.1571,1.1586,1.1408,1.1367,1.1569,1.1569,1.1569,1.1569,1.1569,1.1569,1.0097,1.0265,1.0301,1.0509,1.0576,1.0725,1.079,1.0877,1.0957,1.1138,1.1249,1.1305,1.14,1.1542,1.1665,1.1688,1.1736,1.1766,1.1787,1.162,1.1599,1.1579,1.1541,1.1776,1.1777,1.1954,1.1956,1.1957]}]]